#timestamp,LO_Frequency,Hit,StdDev 
1596628815.3,286046999.5,N
1596628835.2,286046999.2,N
1596628855.9,286046999.3,N
1596628875.7,286046996.9,Y
1596628895.6,286046999.0,P
1596628915.4,286046999.1,P
1596628935.2,286046999.5,P
1596628955.1,286046998.6,Y
1596628956.0,286046998.6,P
1596628975.8,286047000.7,N
1596628995.7,286047000.3,N
1596629015.5,286046998.6,N
1596629035.3,286046998.2,N
1596629055.2,286046998.3,N
1596629075.0,286046998.6,N
1596629075.9,286046998.6,N
1596629095.8,286047000.7,N
1596629115.6,286047001.1,N
1596629135.4,286047000.7,N
1596629155.3,286047000.9,N
1596629175.1,286047000.9,N
1596629195.9,286047001.2,N
1596629215.7,286047000.9,N
1596629235.5,286047000.6,N
1596629255.4,286047000.5,N
1596629275.2,286047001.0,N
1596629295.0,286047000.7,N
1596629295.9,286047000.7,N
1596629315.8,286047000.6,N
1596629335.6,286047001.1,N
1596629355.5,286046999.9,N
1596629375.3,286047000.9,N
1596629395.1,286047000.6,N
1596629415.9,286047000.5,N
1596629435.7,286047000.8,N
1596629455.6,286047000.4,N
1596629475.4,286047000.5,N
1596629495.2,286047000.5,N
1596629515.1,286047000.5,N
1596629516.0,286047000.5,N
1596629535.8,286047000.7,N
1596629555.6,286047000.8,N
1596629575.5,286047000.0,N
1596629595.3,286047000.0,N
1596629615.2,286047001.1,N
1596629635.9,286047000.9,N
1596629655.7,286046998.2,Y
1596629675.6,286046999.4,P
1596629695.4,286046997.0,P
1596629715.3,286046999.1,N
1596629735.1,286046996.5,N
1596629736.0,286046996.5,N
1596629755.8,286046996.5,N
1596629775.7,286046996.5,N
1596629795.5,286046996.6,N
1596629815.3,286046996.5,N
1596629835.2,286046997.0,N
1596629855.0,286046997.4,N
1596629855.9,286046997.4,N
1596629875.8,286046999.6,N
1596629895.6,286046999.6,N
1596629915.4,286046997.0,N
1596629935.3,286046997.1,N
1596629955.1,286046994.9,Y
1596629975.9,286046999.2,P
1596629995.7,286046998.9,N
1596630015.5,286046999.6,N
1596630035.4,286046999.5,N
1596630055.2,286046999.0,N
1596630075.1,286047000.6,N
1596630076.0,286047000.6,N
1596630095.8,286046999.7,N
1596630115.6,286047000.7,N
1596630135.5,286046998.8,N
1596630155.3,286046997.3,Y
1596630175.2,286046996.5,P
1596630195.9,286046995.0,P
1596630215.7,286046997.8,N
1596630235.6,286046996.6,N
1596630255.4,286046996.5,N
1596630275.2,286046999.5,N
1596630295.1,286046996.9,N
1596630296.0,286046996.9,N
1596630315.8,286046997.2,N
1596630335.7,286046996.9,N
1596630355.5,286046997.2,N
1596630375.3,286046996.6,N
1596630395.2,286046999.4,N
1596630415.0,286046999.5,N
1596630415.9,286046999.5,N
1596630435.8,286046997.4,N
1596630455.2,286046997.2,N
1596630475.1,286046999.5,N
1596630476.0,286046999.5,N
1596630495.8,286046996.5,N
1596630515.7,286046995.3,Y
1596630535.5,286046998.3,P
1596630555.3,286047000.3,N
1596630575.2,286047000.9,N
1596630595.0,286046998.5,N
1596630595.9,286046998.5,N
1596630615.8,286046999.0,N
1596630635.6,286046998.9,N
1596630655.4,286046998.1,N
1596630675.3,286046999.3,N
1596630695.1,286046996.9,Y
1596630715.8,286046998.4,P
1596630735.7,286046998.7,P
1596630755.5,286046999.6,N
1596630775.4,286046999.1,N
1596630795.2,286046999.3,N
1596630815.0,286046996.8,Y
1596630816.0,286046996.8,P
1596630835.8,286046998.9,N
1596630855.6,286046998.2,N
1596630875.5,286047001.2,N
1596630895.3,286046998.1,N
1596630915.1,286047000.8,N
1596630935.9,286046998.6,N
1596630955.7,286046996.6,N
1596630975.6,286046997.3,N
1596630995.4,286046996.9,N
1596631015.2,286046995.3,Y
1596631035.1,286046999.2,P
1596631036.0,286046999.2,N
1596631055.8,286046998.2,P
1596631075.7,286046998.5,Y
1596631095.5,286047002.3,P
1596631115.3,286047002.1,N
1596631135.2,286047001.3,N
1596631155.0,286047004.2,N
1596631155.9,286047004.2,N
1596631175.7,286047004.0,N
1596631195.6,286047004.4,N
1596631215.4,286047001.4,N
1596631235.3,286047002.4,N
1596631255.1,286047002.7,N
1596631275.8,286047001.9,N
1596631295.7,286047002.8,N
1596631315.5,286047001.9,N
1596631335.4,286047002.6,N
1596631355.2,286047004.0,N
1596631375.0,286047004.1,N
1596631375.9,286047004.1,N
1596631395.8,286047003.1,N
1596631415.6,286047003.1,N
1596631435.5,286047003.2,N
1596631455.3,286047003.3,N
1596631475.1,286047005.9,Y
1596631495.9,286047002.7,P
1596631515.7,286046999.9,N
1596631535.6,286047000.6,N
1596631555.4,286046999.9,N
1596631575.2,286046999.7,N
1596631595.1,286047002.8,N
1596631596.0,286047002.8,N
1596631615.8,286047002.2,N
1596631635.7,286046999.7,N
1596631655.5,286047004.2,Y
1596631675.3,286047000.3,P
1596631695.2,286047000.9,N
1596631715.0,286047000.9,N
1596631715.9,286047000.9,N
1596631735.8,286047000.2,N
1596631755.6,286047000.0,N
1596631775.4,286047001.0,N
1596631795.3,286046998.1,Y
1596631815.1,286047000.7,P
1596631835.8,286047001.1,P
1596631855.7,286047001.1,P
1596631875.5,286047000.7,Y
1596631895.4,286046998.4,P
1596631915.2,286046998.8,N
1596631935.0,286046999.3,N
1596631935.9,286046999.3,N
1596631955.8,286046998.6,N
1596631975.6,286046998.7,N
1596631995.5,286046998.7,N
1596632015.3,286046998.5,N
1596632035.1,286046998.2,N
1596632055.9,286046998.2,N
1596632075.7,286046998.8,N
1596632095.6,286046998.9,N
1596632115.4,286046998.6,N
1596632135.2,286046999.0,N
1596632155.1,286047001.2,N
1596632156.0,286047001.2,N
1596632175.8,286046998.6,N
1596632195.7,286047000.7,N
1596632215.5,286046998.6,N
1596632235.3,286046998.6,N
1596632255.2,286046998.7,N
1596632275.0,286046999.3,N
1596632275.9,286046999.3,N
1596632295.8,286046999.1,N
1596632315.6,286046998.7,N
1596632335.4,286046999.3,N
1596632355.3,286046999.5,N
1596632375.1,286046999.2,N
1596632395.8,286046999.0,N
